Dallas, TX

8:50 AM CST on February 24, 2017 (GMT -0600)
Dallas-Fort Worth International

Weather History for KDFW - May, 2014

Change the Weather History Date:

Sunday, May 25, 2014

  Actual Average Record
Temperature  
Mean Temperature 79 °F 76 °F  
Max Temperature 87 °F 86 °F 97 °F (1980)
Min Temperature 70 °F 67 °F 51 °F (1979)
Degree Days  
Heating Degree Days 0 0  
Month to date heating degree days 9 6  
Since 1 July heating degree days 2603 2282  
Cooling Degree Days 14 12  
Month to date cooling degree days 237 210  
Year to date cooling degree days 404 348  
Growing Degree Days 28 (Base 50)    
Moisture  
Dew Point 67 °F    
Average Humidity 71    
Maximum Humidity 90    
Minimum Humidity 51    
Precipitation  
Precipitation 1.90 in 0.15 in 2.31 in (1957)
Month to date precipitation 3.15 3.96  
Year to date precipitation 7.08 15.31  
Sea Level Pressure  
Sea Level Pressure 29.96 in    
Wind  
Wind Speed 10 mph (South)    
Max Wind Speed 39 mph    
Max Gust Speed 58 mph    
Visibility 8 miles    
Events Fog , Rain , Thunderstorm    
T = Trace of Precipitation, MM = Missing Value Source: NWS Daily Summary

Daily Weather History Graph

Daily Weather History Graph

Search for Another Location

Airport or City:

Trip Planner

Search our weather history database for the weather conditions in past years. The results will help you decide how hot, cold, wet, or windy it might be!

Date:

Astronomy

May. 25, 2014 Rise Set
Actual Time 6:23 AM CDT 8:27 PM CDT
Civil Twilight 5:55 AM CDT 8:55 PM CDT
Nautical Twilight 5:21 AM CDT 9:29 PM CDT
Astronomical Twilight 4:45 AM CDT 10:05 PM CDT
Moon 4:17 AM CDT (5/25) 5:38 PM CDT (5/25)
Length of Visible Light 14h 59m
Length of Day
14h 04m
Waning Crescent, 10% of the Moon is Illuminated
May 25
Waning Crescent
May 28
New
Jun 5
First Quarter
Jun 12
Full
Jun 19
Last Quarter

Hourly Weather History & Observations

Time (CDT) Temp. Heat Index Dew Point Humidity Pressure Visibility Wind Dir Wind Speed Gust Speed Precip Events Conditions
12:53 AM 75.2 °F - 66.2 °F 73% 29.94 in 10.0 mi SSE 13.8 mph 24.2 mph N/A Rain Light Rain
1:53 AM 75.0 °F - 68.0 °F 79% 29.89 in 10.0 mi South 13.8 mph 21.9 mph 0.02 in   Overcast
2:53 AM 75.0 °F - 66.9 °F 76% 29.90 in 10.0 mi South 15.0 mph 25.3 mph N/A   Overcast
3:53 AM 73.4 °F - 66.2 °F 78% 29.96 in 10.0 mi South 9.2 mph - N/A   Mostly Cloudy
4:53 AM 73.9 °F - 68.0 °F 82% 29.95 in 10.0 mi SSW 11.5 mph - N/A   Overcast
5:53 AM 73.0 °F - 66.9 °F 81% 29.96 in 10.0 mi South 12.7 mph - N/A   Mostly Cloudy
6:53 AM 73.4 °F - 66.2 °F 78% 29.99 in 10.0 mi South 9.2 mph - N/A   Mostly Cloudy
7:18 AM 73.0 °F - 66.9 °F 81% 30.00 in 10.0 mi South 8.1 mph - N/A   Overcast
7:53 AM 73.9 °F - 68.0 °F 82% 29.96 in 10.0 mi South 10.4 mph - N/A   Overcast
8:53 AM 75.0 °F - 66.9 °F 76% 29.98 in 10.0 mi South 12.7 mph - N/A   Overcast
9:53 AM 75.2 °F - 66.2 °F 73% 30.01 in 10.0 mi South 9.2 mph - N/A   Overcast
10:41 AM 79.0 °F - 66.0 °F 64% 30.01 in 10.0 mi South 9.2 mph - N/A   Overcast
10:53 AM 79.0 °F - 64.0 °F 60% 29.99 in 10.0 mi South 17.3 mph - N/A   Overcast
11:53 AM 82.0 °F 84.5 °F 66.9 °F 60% 29.99 in 10.0 mi South 13.8 mph - N/A   Mostly Cloudy
12:53 PM 84.0 °F 85.8 °F 64.9 °F 53% 29.97 in 10.0 mi SSE 16.1 mph 23.0 mph N/A   Mostly Cloudy
1:53 PM 84.0 °F 85.8 °F 64.9 °F 53% 29.97 in 10.0 mi SSW 11.5 mph 16.1 mph N/A   Mostly Cloudy
2:53 PM 84.0 °F 85.4 °F 64.0 °F 51% 29.95 in 10.0 mi SSW 8.1 mph - N/A   Mostly Cloudy
3:06 PM 73.9 °F - 66.9 °F 79% 29.98 in 1.8 mi SSW 28.8 mph 39.1 mph 0.01 in Rain , Thunderstorm Heavy Thunderstorms and Rain
3:18 PM 73.0 °F - 64.0 °F 73% 29.99 in 0.8 mi West 13.8 mph 26.5 mph 0.30 in Rain , Thunderstorm Heavy Thunderstorms and Rain
3:29 PM 70.0 °F - 66.9 °F 90% 29.98 in 0.2 mi West 18.4 mph 57.5 mph 0.72 in Fog , Rain , Thunderstorm Heavy Thunderstorms and Rain
3:44 PM 72.0 °F - 68.0 °F 87% 29.99 in 1.5 mi SE 15.0 mph 26.5 mph 1.65 in Rain , Thunderstorm Heavy Thunderstorms and Rain
3:53 PM 71.1 °F - 66.9 °F 87% 29.97 in 1.2 mi SSE 4.6 mph - 1.70 in Rain , Thunderstorm Light Thunderstorms and Rain
4:07 PM 71.1 °F - 66.9 °F 87% 29.98 in 6.0 mi North 4.6 mph - 0.04 in Rain , Thunderstorm Light Thunderstorms and Rain
4:28 PM 73.0 °F - 69.1 °F 87% 29.97 in 10.0 mi NNE 5.8 mph - 0.04 in   Mostly Cloudy
4:53 PM 73.9 °F - 69.1 °F 85% 29.95 in 10.0 mi North 9.2 mph - 0.05 in   Mostly Cloudy
5:53 PM 73.9 °F - 70.0 °F 87% 29.97 in 10.0 mi ESE 4.6 mph - N/A   Overcast
6:53 PM 73.9 °F - 68.0 °F 82% 29.98 in 5.0 mi SW 8.1 mph - 0.00 in Rain Light Rain
7:53 PM 73.0 °F - 69.1 °F 87% 29.96 in 4.0 mi South 9.2 mph - 0.06 in Rain Rain
8:53 PM 72.0 °F - 68.0 °F 87% 29.94 in 9.0 mi SSE 9.2 mph - 0.07 in Rain Light Rain
9:53 PM 73.9 °F - 66.9 °F 79% 29.88 in 10.0 mi Variable 3.5 mph - 0.00 in   Overcast
10:53 PM 75.9 °F - 64.0 °F 67% 29.93 in 10.0 mi South 13.8 mph - N/A   Overcast
11:53 PM 73.0 °F - 64.9 °F 76% 29.93 in 10.0 mi SE 5.8 mph - N/A   Mostly Cloudy